User: anonymous   Login
Location: Unspecified
(0.0000°N, 0.0000°E)
Time: 20:40:42
(UTC+00:00)
Language:

Altair - Orbit

View from above orbital plane
View from above orbital plane
View from above satellite
View from above satellite

Ground track
Ground track

The orbit data is extracted from the following two-line orbital elements,

1    50U 60009B   16211.96506854 -.00000047 +00000-0 +37695-3 0  9999
2    50 047.2283 203.7384 0112984 058.0016 303.1696 12.20096017497034
Epoch (UTC): 29 July 2016 23:09:41
Eccentricity: 0.0112984
inclination: 47.2283°
perigee height: 1502 km
apogee height: 1682 km
right ascension of ascending node: 203.7384°
argument of perigee: 58.0016°
revolutions per day: 12.20096017
mean anomaly at epoch: 303.1696°
orbit number at epoch: 49703

The dashed part of the orbit path shows where the satellite is in the earth's shadow,  

DLR